Location: ?�kov
(49.4404°N, 15.1201°E)
Time: 17:53:37
(UTC+00:00)

Okean 3 Rocket - Pass Details

Date: 07 June 2020
Orbit: 614 x 646 km, 82.5° (Epoch: 09 July)

Event Time Altitude Azimuth Distance (km) Brightness Sun altitude
Exits shadow 01:44:42 - 176° (S) 2,649 6.4 -8.9°
Reaches altitude 10° 01:46:14 10° 173° (S) 2,041 5.8 -8.7°
Maximum altitude 01:50:41 57° 95° (E) 766 4.3 -8.3°
Drops below altitude 10° 01:55:09 10° 17° (NNE) 2,055 7.5 -7.8°
Sets 01:57:26 0° 14° (NNE) 2,967 8.3 -7.6°
